Weather in Bekhteyevo

Russia / Smolensk Oblast     55°46′45″N   33°58′26″E
temp.,
°C
wind,
m/s
gust,
m/s
humid.,
%
clouds,
%
prec.,
mm/h
press.,
hPa
HPBL,
m
24 january, mon
mon2400:00−19wnw1110099 0.0 10369
03:00−19wnw1110094 0.0 10379
06:00−19w11100100 0.0 10379
09:00−20sw22100100 0.0 103811
12:00−10sw22937 0.0 103689
15:00−8sw24945 0.0 1035132
18:00−15ssw239964 0.0 103536
21:00−15sw369738 0.0 103371
25 january, tue
tue2500:00−15sw389727 0.0 1032103
03:00−15ssw4119745 0.0 1029151
06:00−15sw4129756 0.0 1027184
09:00−14ssw51394100 0.0 1024215
12:00−10ssw51390100 0.0 1021304
15:00−8ssw51294100 0.2 1018362
18:00−7sw41095100 0.9 1016360
21:00−7wsw3796100 2.3 1016244
26 january, wed
wed2600:00−6nw3109569 0.3 1016263
03:00−4nnw5986100 0.3 1016620
06:00−8nw5109494 0.0 1018344
09:00−11nnw38945 0.1 1020179
12:00−9n39885 0.0 1020280
15:00−8nw36885 0.0 1021209
18:00−15nw229846 0.0 10229
21:00−18wnw11100100 0.0 10219
27 january, thu
thu2700:00−16sw2297100 0.0 102018
03:00−13ssw3694100 0.0 1018114
06:00−14s3894100 0.0 1016141
09:00−14s31092100 0.0 1015172
12:00−10s41185100 0.0 1013326
15:00−8s5128678 0.0 1011493
18:00−8s51294100 0.2 1010447
21:00−9s51194100 0.4 1008346
28 january, fri
fri2800:00−9s41195100 0.1 1006285
03:00−8s41295100 0.1 1004323
06:00−6sse51495100 0.1 1001432
09:00−6sse51395100 1.1 1000503
12:00−4s51196100 0.8 998500
15:00−2s489595 1.3 997438
18:00−2se3697100 0.1 997201
21:00−3se249897 0.3 998117